Vorticity
8 10 12 12 11 10 10 10 10 8 7 7 7 7 6 6 7 7 7 7 7 7 8 7 7 7 7 8 8 7 7 7 8 7 7 6 6 6 6 6 6 6
8 10 12 12 10 10 10 11 10 9 8 7 7 8 7 6 7 7 7 7 7 8 8 8 7 7 8 8 8 8 8 9 8 8 7 6 6 6 7 6 6 7
8 9 11 11 10 10 10 11 10 9 8 7 8 8 8 7 7 8 8 8 8 8 8 8 7 7 8 8 8 9 8 8 8 7 6 6 6 6 7 7 7 8
8 8 9 10 10 11 10 10 9 8 8 8 8 9 9 8 8 9 9 9 9 8 7 7 7 7 8 8 8 8 8 7 7 6 6 7 7 6 6 7 7 7
8 8 8 8 10 10 10 10 9 9 10 10 10 10 9 10 10 10 10 10 9 8 8 8 8 8 8 8 7 7 7 6 6 7 6 6 6 7 7 8 9 8
7 8 8 8 9 9 9 10 10 10 11 11 10 10 10 11 11 10 9 9 8 7 8 8 7 7 7 7 7 6 7 6 6 6 6 5 7 8 8 7 8 6
6 7 8 8 8 8 8 9 9 10 11 11 11 10 11 11 10 9 9 8 7 7 7 7 7 7 7 7 7 6 7 6 6 6 5 5 6 7 6 5 5 5
6 7 7 7 8 8 8 8 8 9 9 10 10 10 10 10 9 8 8 7 7 7 7 7 6 7 7 7 6 6 7 6 6 6 6 6 6 6 6 5 5 5
5 6 7 7 7 7 7 7 7 8 8 8 9 10 9 9 8 8 8 7 7 7 7 7 6 6 6 6 6 6 5 4 4 5 6 6 6 5 5 5 6 5
5 6 6 7 7 6 6 6 7 7 6 6 7 8 8 7 6 6 7 7 7 7 7 6 6 6 6 6 6 6 6 5 5 6 6 4 5 7 6 5 5 5
7 6 6 6 7 6 5 5 6 6 6 6 5 6 6 5 5 5 6 7 7 7 7 6 6 6 6 6 7 7 7 7 6 7 6 4 4 7 8 7 6 6
8 7 6 6 5 6 6 5 5 5 5 6 5 5 5 5 5 5 6 7 7 6 6 5 6 5 5 7 8 7 6 6 6 5 4 5 6 8 7 6 8 9
8 8 8 7 6 5 5 5 6 6 6 6 6 5 4 4 5 5 6 7 7 7 6 6 6 6 7 8 6 5 6 7 7 6 5 6 7 6 4 4 5 5
9 9 8 8 7 6 5 5 6 6 6 7 6 5 5 4 4 4 6 7 7 7 7 7 7 6 6 6 4 5 6 5 3 3 4 4 4 4 5 5 4 3
9 9 9 8 8 8 7 6 6 5 6 7 7 7 7 6 5 5 6 7 6 7 6 6 6 6 4 4 5 5 4 2 1 2 3 3 4 5 5 5 6 5
8 9 9 9 8 8 8 8 7 7 6 6 6 6 7 7 7 7 7 7 6 5 5 5 5 6 6 6 6 5 4 4 5 6 5 5 6 7 5 5 6 6
7 9 10 10 8 8 8 8 8 8 7 7 6 6 7 7 8 7 7 7 6 5 5 6 6 8 8 8 8 7 6 6 6 7 6 6 7 7 8 8 6 5
8 8 9 9 10 9 8 8 8 9 9 8 7 7 7 7 7 7 6 5 5 4 5 6 7 8 9 9 8 6 5 5 6 5 4 6 8 8 8 8 6 5
6 9 8 9 10 10 9 8 7 7 8 9 8 7 7 7 7 7 6 5 5 5 6 7 8 8 8 7 6 5 4 5 6 4 3 5 6 4 4 5 2 1
1 5 8 9 9 9 10 10 8 7 7 7 7 7 7 6 6 6 6 5 5 5 6 7 6 7 7 5 4 4 4 5 5 5 5 4 1 1 4 6 3 2
4 1 3 7 9 9 9 10 10 9 8 7 6 7 7 6 5 5 5 5 5 6 6 6 5 5 5 4 3 3 3 4 5 5 6 5 3 5 8 8 6 6
13 6 1 2 6 8 9 9 9 10 10 10 8 7 6 6 5 5 5 5 5 5 6 5 5 5 4 4 4 3 3 4 5 6 7 7 6 7 7 6 7 7
20 14 6 0 0 3 6 8 8 9 10 11 11 10 9 7 6 6 6 5 5 5 6 5 4 4 4 3 4 4 4 4 5 6 8 8 9 8 6 6 7 6
24 23 14 3 -1 -0 2 4 5 7 8 9 10 11 11 9 8 8 8 7 6 5 4 4 5 5 4 4 4 4 4 5 6 8 8 7 6 6 6 7 8 7
21 27 23 12 4 0 1 2 3 2 3 5 7 9 10 11 11 10 9 8 8 8 7 6 6 5 5 4 4 5 6 6 7 8 9 7 3 1 2 3 4 4
12 19 23 20 12 6 3 3 4 3 1 1 4 6 8 9 10 10 9 9 8 8 8 7 6 7 7 7 6 6 7 7 8 7 7 9 8 3 1 3 4 5
Height
5912 5913 5914 5915 5916 5917 5918 5919 5921 5922 5923 5924 5925 5925 5926 5926 5927 5927 5928 5928 5929 5930 5930 5931 5931 5932 5932 5933 5933 5933 5934 5934 5935 5935 5935 5935 5935 5935 5936 5936 5935 5935
5910 5911 5912 5913 5914 5915 5917 5918 5919 5920 5922 5923 5923 5924 5924 5925 5926 5926 5927 5928 5929 5929 5930 5930 5931 5931 5932 5932 5932 5933 5933 5933 5934 5934 5934 5935 5935 5935 5935 5935 5934 5934
5909 5910 5911 5912 5913 5914 5915 5917 5918 5919 5920 5921 5922 5923 5923 5924 5925 5926 5927 5927 5928 5929 5929 5930 5930 5930 5931 5931 5931 5932 5932 5932 5933 5933 5934 5934 5934 5934 5934 5934 5934 5934
5908 5909 5909 5910 5912 5913 5914 5915 5916 5917 5919 5920 5921 5922 5922 5923 5924 5925 5926 5926 5927 5928 5928 5929 5929 5929 5929 5930 5930 5931 5931 5932 5932 5933 5933 5933 5933 5933 5933 5933 5933 5933
5907 5908 5908 5909 5911 5912 5913 5914 5915 5916 5917 5918 5919 5920 5921 5922 5923 5924 5924 5925 5926 5926 5927 5927 5928 5928 5929 5929 5930 5931 5931 5932 5932 5932 5932 5932 5932 5932 5932 5932 5932 5932
5907 5907 5908 5909 5910 5911 5911 5912 5914 5915 5916 5917 5918 5919 5920 5921 5922 5922 5923 5924 5924 5925 5926 5926 5926 5927 5928 5929 5929 5930 5930 5930 5931 5931 5931 5931 5931 5931 5932 5932 5933 5934
5906 5907 5907 5908 5909 5910 5910 5911 5912 5914 5915 5916 5917 5918 5919 5920 5920 5921 5922 5922 5923 5924 5924 5925 5925 5926 5927 5928 5928 5928 5929 5929 5929 5929 5930 5930 5931 5932 5933 5934 5934 5934
5905 5906 5907 5908 5908 5909 5910 5910 5911 5912 5913 5914 5916 5917 5918 5918 5919 5920 5920 5921 5922 5923 5923 5924 5925 5925 5926 5926 5927 5927 5927 5927 5928 5928 5929 5930 5931 5932 5933 5933 5932 5932
5903 5905 5906 5907 5908 5908 5909 5909 5910 5911 5912 5913 5914 5916 5916 5917 5918 5919 5919 5920 5921 5921 5922 5923 5923 5924 5924 5925 5926 5927 5927 5928 5928 5929 5929 5930 5931 5932 5931 5930 5930 5931
5901 5902 5904 5906 5907 5907 5908 5908 5909 5910 5911 5912 5913 5914 5915 5916 5917 5918 5918 5919 5920 5920 5921 5921 5922 5923 5924 5925 5926 5928 5929 5929 5929 5930 5931 5932 5932 5931 5930 5930 5929 5930
5898 5900 5901 5903 5905 5906 5907 5907 5908 5909 5910 5911 5912 5913 5913 5914 5915 5916 5917 5918 5918 5919 5920 5920 5921 5922 5924 5925 5926 5926 5926 5927 5927 5929 5930 5930 5931 5930 5929 5928 5928 5928
5897 5898 5899 5900 5902 5904 5905 5906 5907 5908 5909 5910 5910 5911 5912 5913 5914 5915 5915 5916 5917 5918 5919 5919 5920 5922 5923 5924 5923 5924 5924 5925 5925 5926 5927 5927 5927 5927 5927 5927 5927 5926
5897 5897 5897 5898 5900 5901 5902 5904 5905 5906 5907 5908 5909 5910 5910 5911 5912 5913 5914 5914 5915 5917 5917 5918 5920 5921 5922 5922 5922 5923 5923 5924 5924 5925 5925 5924 5924 5925 5925 5926 5925 5924
5895 5895 5896 5897 5898 5899 5900 5901 5903 5904 5905 5906 5907 5908 5909 5909 5910 5911 5912 5913 5914 5915 5916 5917 5918 5920 5920 5920 5921 5921 5922 5922 5923 5922 5922 5922 5922 5923 5923 5923 5923 5922
5892 5893 5894 5895 5896 5897 5898 5899 5900 5901 5902 5904 5905 5906 5907 5908 5908 5909 5910 5911 5912 5913 5914 5915 5917 5918 5919 5919 5919 5919 5919 5920 5920 5919 5919 5919 5920 5920 5921 5921 5921 5920
5889 5890 5892 5893 5895 5896 5896 5897 5898 5899 5900 5901 5903 5904 5905 5906 5907 5907 5908 5909 5910 5911 5912 5914 5915 5916 5917 5917 5917 5917 5916 5916 5916 5917 5917 5917 5917 5918 5918 5918 5918 5918
5886 5887 5889 5890 5892 5893 5895 5895 5896 5897 5898 5899 5900 5901 5902 5903 5904 5905 5906 5907 5908 5909 5910 5912 5913 5914 5914 5914 5914 5914 5914 5914 5914 5914 5914 5914 5914 5915 5916 5916 5916 5915
5882 5884 5886 5887 5889 5890 5892 5893 5894 5895 5897 5898 5898 5899 5899 5901 5902 5903 5904 5904 5906 5907 5908 5910 5911 5912 5911 5912 5912 5912 5912 5912 5912 5912 5912 5912 5912 5912 5913 5913 5913 5912
5879 5881 5882 5884 5886 5887 5888 5890 5891 5893 5894 5895 5896 5897 5897 5898 5899 5900 5901 5902 5903 5904 5905 5907 5908 5908 5908 5909 5909 5910 5910 5910 5909 5909 5909 5909 5909 5910 5910 5910 5909 5909
5875 5877 5879 5881 5882 5883 5885 5886 5888 5890 5891 5892 5893 5894 5896 5896 5896 5897 5898 5899 5900 5901 5902 5904 5905 5905 5904 5906 5906 5906 5907 5907 5906 5906 5906 5907 5907 5907 5906 5906 5906 5906
5871 5874 5876 5877 5878 5879 5881 5883 5885 5887 5888 5889 5890 5891 5892 5893 5893 5894 5895 5895 5896 5897 5899 5900 5901 5901 5901 5902 5902 5903 5903 5904 5904 5904 5904 5904 5904 5903 5903 5903 5903 5902
5867 5869 5871 5873 5874 5876 5877 5879 5881 5883 5884 5885 5886 5888 5889 5889 5890 5890 5891 5892 5893 5894 5895 5897 5898 5898 5898 5898 5898 5899 5900 5900 5900 5901 5901 5901 5901 5899 5899 5899 5899 5898
5863 5864 5867 5869 5870 5872 5874 5876 5877 5878 5879 5880 5882 5884 5885 5886 5886 5887 5888 5889 5890 5890 5891 5893 5894 5894 5894 5894 5894 5895 5896 5896 5897 5898 5898 5897 5896 5895 5895 5896 5895 5894
5858 5860 5862 5864 5866 5868 5870 5872 5873 5874 5875 5876 5877 5879 5881 5882 5883 5884 5885 5886 5886 5887 5888 5888 5889 5889 5889 5889 5889 5890 5891 5892 5894 5894 5894 5893 5893 5892 5892 5891 5891 5891
5855 5856 5858 5860 5863 5865 5866 5868 5869 5870 5870 5871 5872 5874 5876 5878 5879 5880 5880 5881 5883 5883 5884 5884 5884 5884 5884 5885 5885 5885 5887 5889 5890 5889 5889 5889 5889 5888 5887 5887 5888 5888
5851 5853 5854 5856 5858 5860 5861 5863 5864 5865 5866 5867 5868 5870 5872 5873 5874 5875 5876 5877 5878 5879 5879 5879 5879 5880 5880 5880 5881 5881 5883 5884 5884 5884 5884 5884 5884 5884 5884 5884 5884 5884